Location: Sungai Dangang
(2.7500°N, 113.8333°E)
Time: 04:33:36
(UTC+00:00)

Envisat - Pass Details

Date: 16 May 2021
Orbit: 764 x 766 km, 98.1° (Epoch: 16 June)

Event Time Altitude Azimuth Distance (km) Brightness Sun altitude
Rises 21:00:55 0° 26° (NNE) 3,214 7.0 -17.9°
Reaches altitude 10° 21:03:21 10° 34° (NE) 2,290 6.3 -17.3°
Maximum altitude 21:08:02 38° 102° (ESE) 1,148 4.4 -16.2°
Drops below altitude 10° 21:12:42 10° 169° (S) 2,297 5.4 -15.1°
Sets 21:15:08 0° 177° (S) 3,225 6.1 -14.6°
